Location: Jackson Park
(37.2862°N, 79.9123°W)
Time: 13:15:42
(UTC+00:00)

Tiros 1 despin weight - Pass Details

Date: 18 May 2026
Orbit: 554 x 591 km, 48.2° (Epoch: 6 June)

Event Time Altitude Azimuth Distance (km) Brightness Sun altitude
Rises 12:11:08 0° 298° (WNW) 2,748 ? 22.4°
Reaches altitude 10° 12:13:59 10° 318° (NW) 1,846 ? 23.0°
Maximum altitude 12:16:57 18° 3° (N) 1,387 ? 23.6°
Drops below altitude 10° 12:19:54 10° 48° (NE) 1,836 ? 24.2°
Sets 12:22:44 0° 67° (ENE) 2,728 ? 24.7°
